COSMOS 983

Satellite information

Favourite Embed

Satellite Type and Status

PAYLOADIN ORBIT

Key statistics

Satellite COSMOS 983 at a glance.

Uptime

17346

Days in orbit

Revolutions

≈ 12.4

Per day

Orbit

LEO

Low Earth Orbit

Inclination

74.0

Latest

Satellite identification and parameters

Extended collection of information and parameters for COSMOS 983.

Object identification

Identified? True

Debris? False

Object name: COSMOS 983

International designator: 1978-005H

Object number (NORAD): 10590

Object ID (CCSDS): 10590

Country: COMMONWEALTH OF INDEPENDENT STATES (CIS)

Current information (Y/N): Y

RCS size: MEDIUM

Orbital parameters

Period: 115.988 minutes

Inclination: 74.0311 deg

SMA: 7878.365 km

Apoapsis: 1537.037 km

Periapsis: 1463.423 km

RAAN: 71.1116 deg

Eccentricy: 0.0046719

Argument of periapsis: 172.3491 deg

Mean anomaly: 187.8278 deg

Mean motion: 12.41505351 rev/day

Mean motion (dot): -0.00000012 rev/day2

B* drag term: 0.000027888 1/REarth

Two-line elements (TLE)

Creation date: July 8, 2025, 2:27 a.m.

Reference frame: TEME

Reference center: EARTH

Epoch: July 7, 2025, 10:45 p.m. UTC

TLE line 0: 0 COSMOS 983

TLE line 1: 1 10590U 78005H 25188.94836882 -.00000012 00000-0 27888-4 0 9998

TLE line 2: 2 10590 74.0311 71.1116 0046719 172.3491 187.8278 12.41505351152268

Live tracking on map

Real-time ground track for satellite COSMOS 983.

In-orbit conjunctions

There are no conjunctions computed for COSMOS 983, at the moment. Check back to stay up to date, as we update our databases every day.

Go to all conjunctions

Associated space launch

Tselina-D satellites provided detailed observation of radio sources detected by the smaller Tselina-O satellites as part of the Tselina ELINT system.

COSMOS 983 was lifted into orbit during the mission ‘Vostok 8A92M | Tselina-D 14’, on board a Vostok 8A92M space rocket.

The launch took place on Jan. 10, 1978, 1:23 p.m. from 43/4 (43R).

For more information about the launch, click the button.

Launch to space Vostok 8A92M | Tselina-D 14
Vostok 8A92M | Tselina-D 14

Agency: N/A

Status: Launch Successful

Launch date: Jan. 10, 1978, 1:23 p.m. UTC

Rocket: Vostok 8A92M

Launch pad: 43/4 (43R)

Location: Plesetsk Cosmodrome, Russian Federation

...

Latest news about this satellite

There are no fresh news available about this satellite. Check back as we update our databases every day.


Newsletter sign-up

Weekly statistics, charts and insights to help you stay on top of the space industry.